Weather in Dolgy Most

Russia / Novgorod Oblast     58°16′53″N   32°26′38″E
temp.,
°C
wind,
m/s
gust,
m/s
humid.,
%
clouds,
%
prec.,
mm/h
press.,
hPa
HPBL,
m
4 march, thu
thu400:00+2w61397100 0.9 1002954
03:00+1nw71297100 3.2 1002950
06:00−2nw3109279 0.3 1001505
09:00−3nw389052 0.3 1002488
12:00−1nw357651 0.0 1002773
15:00−1nw357273 0.1 10021074
18:00−3nnw258684 0.2 1003164
21:00−4nw379374 0.3 1004487
5 march, fri
fri500:00−5nw3789100 0.4 1005556
03:00−6wnw279481 0.5 1006271
06:00−7wnw269668 0.0 1007231
09:00−6nw259266 0.1 1008339
12:00−4nw237897 0.1 1010692
15:00−3nw347399 0.1 1011841
18:00−5nw268199 0.1 1012444
21:00−7nnw279397 0.1 1015404
6 march, sat
sat600:00−9nnw239430 0.0 101694
03:00−9nnw129619 0.0 101827
06:00−9wnw129889 0.1 101850
09:00−7w259193 0.1 1018370
12:00−5w347498 0.1 1017720
15:00−3wsw476252 0.1 10151060
18:00−4sw5116689 0.0 10111146
21:00−4sw7159294 0.6 10061284
7 march, sun
sun700:00−3sw71690100 1.3 10001365
03:00−2sw71594100 3.8 9961231
06:00−2w61196100 3.4 992914
09:00−6wnw61367100 4.9 9941445
12:00−4w6115238 0.0 9952074
15:00−4wsw6117569 0.2 9931412
18:00−5wnw3794100 1.6 990600
21:00−7wnw41182100 3.0 991771
8 march, mon
mon800:00−8nnw6128675 1.1 9941068
03:00−10nnw6138287 1.3 998920
06:00−11nw5109083 0.1 1001875
09:00−11nw5108791 0.3 1004879
12:00−10nnw5881100 0.1 1007885
15:00−9nnw5880100 0.2 1009901
18:00−11nnw4887100 0.1 1012819
21:00−13nnw4989100 0.2 1015703